ARIANE 1 DEB, 40780

Orbit data source: Space-Track

ARIANE 1 DEB, 40780 is space debris in HEO originally from a launch on Mon, 24 Dec 1979 UTC launched from the French Guiana (FRGUI). Debris objects in space refer to the collection of defunct objects orbiting the Earth. Examples of debris include non-operational satellites, rocket bodies, and fragments generated from explosions, collisions, or faulty payload assembly.

Loading next visibility...
Identifier
40780, 1979-104AH
Orbit
HEO
Country
Flag of FRFR
Related business
Manufacturer
Unknown
Mission
Spacecraft
Bus & Motor
Unknown
Mass
Unknown
Launch date (UTC)
1979-12-24 (46 years ago)
Launch vehicle
Unknown
Launch site
French Guiana (FRGUI)
Object type
Payload
Rocket body
Debris
Shape & HBR
Unknown shape, 0.1 m
Radar Cross Section
Small (<0.1 m²)

Expand to show TLE details & history
Last TLE update: 3 days ago

TLE from 3 days ago
0 ARIANE 1 DEB
1 40780U 79104AH  26059.68404977 -.00000041  00000-0 -23283-3 0  9995
2 40780  19.3640 341.9686 5915985 282.8281  20.5696  3.90318724326572
Epoch: 2026-02-28T16:25Z
TLE epoch observation values (Epoch: 2026-02-28T16:25:01.900Z)
Latitude
0.00008°
Longitude
-62.77085°
Altitude
3,422.277 km
Speed
7.612 km/s
True Right ascension
22h 47m 57s
True Declination
0° 00' 00"
Sunlit
Object was in daylight at epoch
Visualization orbit readout
Latitude
Unknown
Longitude
Unknown
Altitude
Unknown
Speed
Unknown
Apparent Right ascension
Unknown
Apparent Declination
Unknown
Sunlit
N/A
Visualization observer readout
Local Sidereal Time
22:44:03
Azimuth
Unknown
Elevation
Unknown
Doppler factor
Unknown
Orbital elements
Apogee altitude
20,748.4 km
Perigee altitude
582.487 km
Semi-major axis
17,043.58 km
Eccentricity
0.5916
Inclination
19.364°
RAAN
341.9686°
Arg. of periapsis
282.8281°
True anomaly
77.43364°
Mean anomaly
20.5696°
Eccentric anomaly
44.20135°
Mean motion
0.97544 °/min
Orbital period
369.06 mins
BSTAR
-0.00023283
Loading maneuver chart data...
Computing Atmospheric mass density...
Loading historical data...
Loading historical data...
Loading historical data...
Loading historical data...
Loading historical data...
Loading historical data...
Loading historical data...

Documentation

Showing up to 5 results
|